Погода в Абрамовке

Россия / Приморский край     44°05′28″N   132°01′44″E
темп.,
°C
ветер,
м/с
пор.,
м/с
влажн.,
%
обл.,
%
осадки,
мм/ч
давл.,
гПа
погр.,
м
4 декабря, сб
сб401:00−15юз1195100 0.0 101710
04:00−16з239459 0.0 101738
07:00−15сз388817 0.0 1019129
10:00−14с411811 0.0 1023593
13:00−12ссз357376 0.0 1025701
16:00−10сз027293 0.0 1025390
19:00−17св11905 0.0 10279
22:00−19ююз11955 0.0 10299
5 декабря, вс
вс501:00−19вюв11965 0.0 10299
04:00−19ююв11955 0.0 10299
07:00−19ю11955 0.0 102910
10:00−13ююз24824 0.0 102988
13:00−5ю59710 0.0 1026338
16:00−3ю612740 0.0 1024359
19:00−3ю716825 0.0 1024354
22:00−2ю717825 0.0 1023387
6 декабря, пн
пн601:00−2ююз615885 0.0 1023313
04:00−4ююз4129310 0.0 1022195
07:00−4ююз311944 0.0 1022149
10:00−2ююз411895 0.0 1023190
13:00+1юз269997 0.0 1022143
16:00+1зюз2892100 0.0 1023160
19:00−3сз387746 0.0 1026111
22:00−8ссз23875 0.0 102939
7 декабря, вт
вт701:00−10с22915 0.0 103114
04:00−11с11925 0.0 103210
07:00−12ссз11925 0.0 10329
10:00−9сз11865 0.0 103331
13:00−4зюз11774 0.0 1032134
16:00−3зюз00855 0.0 103213
19:00−8всв11885 0.0 103210
22:00−10с11915 0.0 103310
8 декабря, ср
ср801:00−10ссз11925 0.0 103310
04:00−11зсз01945 0.0 103310
07:00−12с11945 0.0 103410
10:00−9сз11895 0.0 103528
13:00−3зюз11784 0.0 1034106
16:00−2ююв00865 0.0 103310
19:00−8св11895 0.0 103210
22:00−9юв01935 0.0 103210